Simultaneous Nadir Overpasses (SNOs) Predictions

Prediction of SNOs between LANDSAT-8 and TERRA Satellite Orbit:

Table of predicted SNOs for the next 14.0 days since TLE Epoch: 2/16/2023
Index Date (LANDSAT-8) Time (LANDSAT-8) Lat,Lon (LANDSAT-8) SZA (LANDSAT-8 ) Date (TERRA) Time (TERRA) Lat,Lon (TERRA) SZA (TERRA ) Distance(km) Time Diff (sec)
1 03/01/2023 06:22:24 81.84, 144.85 93.19 03/01/2023 06:23:38 81.93, 144.62 93.25 10.54 74
2 03/01/2023 07:10:18 -80.34, -11.78 82.00 03/01/2023 07:11:28 -80.33, -11.71 81.94 1.54 70
3 03/01/2023 07:59:42 80.25, 156.66 98.12 03/01/2023 08:00:48 80.26, 156.66 98.17 0.16 66
4 03/01/2023 08:49:05 -80.15, -34.73 81.72 03/01/2023 08:50:08 -80.16, -34.87 81.71 3.18 63
5 03/01/2023 09:38:34 80.23, 132.21 98.15 03/01/2023 09:39:32 80.22, 132.30 98.20 1.88 58
6 03/01/2023 10:27:56 -80.08, -58.89 81.65 03/01/2023 10:28:51 -80.09, -58.94 81.62 1.14 55
7 03/01/2023 11:17:18 79.92, 110.09 98.58 03/01/2023 11:18:09 79.93, 109.96 98.60 2.84 51
8 03/01/2023 12:06:46 -79.98, -82.78 81.53 03/01/2023 12:07:33 -79.98, -82.74 81.49 0.90 47
9 03/01/2023 12:56:09 79.85, 85.90 98.66 03/01/2023 12:56:52 79.86, 85.86 98.68 0.80 43
10 03/01/2023 13:45:37 -79.92,-106.97 81.46 03/01/2023 13:46:16 -79.90,-106.84 81.40 2.94 39
11 03/01/2023 14:35:01 79.82, 61.42 98.68 03/01/2023 14:35:36 79.82, 61.48 98.71 1.25 35
12 03/01/2023 15:24:22 -79.63,-129.52 81.07 03/01/2023 15:24:54 -79.64,-129.59 81.06 1.76 32
13 03/01/2023 16:13:52 79.75, 37.22 98.75 03/01/2023 16:14:19 79.74, 37.37 98.80 3.29 27
14 03/01/2023 17:03:12 -79.52,-153.48 80.95 03/01/2023 17:03:36 -79.52,-153.47 80.93 0.28 24
15 03/01/2023 17:52:33 79.31, 15.64 99.34 03/01/2023 17:52:53 79.31, 15.58 99.35 1.41 20
16 03/01/2023 18:42:02 -79.42,-177.45 80.82 03/01/2023 18:42:18 -79.40,-177.36 80.79 2.33 16
17 03/01/2023 19:31:24 79.23, -8.61 99.42 03/01/2023 19:31:36 79.23, -8.59 99.43 0.64 12
18 03/01/2023 20:20:44 -78.99, 160.52 80.28 03/01/2023 20:20:53 -79.00, 160.43 80.30 2.37 9
19 03/01/2023 21:10:15 79.16, -32.87 99.49 03/01/2023 21:10:19 79.14, -32.76 99.51 2.69 4
20 03/01/2023 21:59:33 -78.83, 136.71 80.11 03/01/2023 21:59:34 -78.83, 136.70 80.11 0.32 1
21 03/01/2023 22:48:53 78.55, -54.11 100.24 03/01/2023 22:48:50 78.56, -54.18 100.22 1.98 3
22 03/01/2023 23:38:22 -78.67, 112.88 79.93 03/01/2023 23:38:15 -78.66, 112.94 79.92 1.73 7
23 03/02/2023 00:27:43 78.42, -78.20 100.36 03/02/2023 00:27:32 78.42, -78.20 100.35 0.08 11
24 03/02/2023 01:17:01 -78.08, 91.13 79.24 03/02/2023 01:16:47 -78.09, 91.03 79.27 2.95 14
25 03/02/2023 02:06:33 78.30,-102.30 100.49 03/02/2023 02:06:14 78.29,-102.23 100.49 2.14 19
26 03/02/2023 02:55:49 -77.86, 67.39 79.01 03/02/2023 02:55:27 -77.87, 67.36 79.04 0.89 22



Historial Predications of SNOs between LANDSAT-8 and TERRA
